This is the latest recevied weather packets stored in our database for station/object IK1PCD-11. If no packets are shown the sender has not sent any weather packets the latest 10 day(s).
| Time | Temp. | Humidity | Pressure | Rain* | Wind** | Luminosity | Snow |
|---|---|---|---|---|---|---|---|
| 1777919299 | 10° C | 70% | 1015.8 hPa | - | - | - | - |
| 1777918395 | 10.56° C | 65% | 1015.9 hPa | - | - | - | - |
| 1777917495 | 11.67° C | 66% | 1015.9 hPa | - | - | - | - |
| 1777916595 | 12.22° C | 65% | 1015.9 hPa | - | - | - | - |
| 1777915695 | 13.33° C | 60% | 1016 hPa | - | - | - | - |
| 1777914794 | 12.78° C | 59% | 1016.1 hPa | - | - | - | - |
| 1777913894 | 13.33° C | 54% | 1016.1 hPa | - | - | - | - |
| 1777910293 | 14.44° C | 54% | 1016.3 hPa | - | - | - | - |
| 1777909393 | 15° C | 57% | 1016.4 hPa | - | - | - | - |
| 1777908493 | 16.11° C | 54% | 1016.4 hPa | - | - | - | - |
| 1777907593 | 16.11° C | 52% | 1016.4 hPa | - | - | - | - |
| 1777906693 | 15.56° C | 59% | 1016.5 hPa | - | - | - | - |
| 1777905793 | 15.56° C | 50% | 1016.5 hPa | - | - | - | - |
| 1777904893 | 16.67° C | 55% | 1016.7 hPa | - | - | - | - |
| 1777903993 | 16.11° C | 57% | 1016.8 hPa | - | - | - | - |
| 1777903093 | 16.11° C | 59% | 1017 hPa | - | - | - | - |
| 1777902194 | 15.56° C | 48% | 1017 hPa | - | - | - | - |
| 1777901292 | 17.22° C | 46% | 1017.1 hPa | - | - | - | - |
| 1777900392 | 14.44° C | 50% | 1017.2 hPa | - | - | - | - |
| 1777899492 | 14.44° C | 45% | 1017.4 hPa | - | - | - | - |
| 1777898592 | 16.11° C | 48% | 1017.2 hPa | - | - | - | - |
| 1777897692 | 16.11° C | 49% | 1017.3 hPa | - | - | - | - |
| 1777895894 | 15° C | 46% | 1017.4 hPa | - | - | - | - |
| 1777894994 | 14.44° C | 49% | 1017.6 hPa | - | - | - | - |
| 1777894094 | 13.33° C | 51% | 1017.7 hPa | - | - | - | - |
* Rain since midnight (hover to see other rain measurements)
** Current wind speed in m/s (hover to see current wind gust speed)